User: anonymous   Login
Location: Ay?beleni
(36.6500°N, 30.3000°E)
Time: 13:20:11
(UTC+00:00)
Language:

ISS - Orbit

View from above orbital plane
View from above orbital plane
View from above satellite
View from above satellite

Ground track
Ground track

The orbit data is extracted from the following two-line orbital elements,

1 25544U 98067A   21264.38529174  .00001703  00000-0  39814-4 0  9994
2 25544  51.6436 227.0723 0003434  37.5378 112.6470 15.48417137303500
Epoch (UTC): 21 September 2021 09:14:49
Eccentricity: 0.0003434
inclination: 51.6436°
perigee height: 419 km
apogee height: 423 km
right ascension of ascending node: 227.0723°
argument of perigee: 37.5378°
revolutions per day: 15.48417137
mean anomaly at epoch: 112.6470°
orbit number at epoch: 30350

The dashed part of the orbit path shows where the satellite is in the earth's shadow,  

DLR